Weather History for New Bedford, MA

Change the Weather History Date:

Saturday, December 1, 2012

  Actual Average Record
Temperature  
Mean Temperature 36 °F -  
Max Temperature 39 °F 45 °F 66 °F (2001)
Min Temperature 32 °F 31 °F 11 °F (1989)
Degree Days  
Heating Degree Days 30    
Moisture  
Dew Point 32 °F    
Average Humidity 87    
Maximum Humidity 93    
Minimum Humidity 64    
Precipitation  
Precipitation 0.01 in - - ()
Sea Level Pressure  
Sea Level Pressure 30.54 in    
Wind  
Wind Speed 4 mph (NNE)    
Max Wind Speed 8 mph    
Max Gust Speed -    
Visibility 7 miles    
Events Snow    
Averages and records for this station are not official NWS values.
T = Trace of Precipitation, MM = Missing Value Source: NWS Daily Summary

Daily Weather History Graph

Daily Weather History Graph

Search for Another Location

Airport:

Trip Planner

Search our weather history database for the weather conditions in past years. The results will help you decide how hot, cold, wet, or windy it might be!

Date:

Astronomy

Dec. 01, 2012 Rise Set
Actual Time 6:51 AM EST 4:14 PM EST
Civil Twilight 6:20 AM EST 4:45 PM EST
Nautical Twilight 5:46 AM EST 5:19 PM EST
Astronomical Twilight 5:12 AM EST 5:53 PM EST
Moon 7:01 PM EST (12/1) 9:02 AM EST (12/1)
Length of Visible Light 10h 24m
Length of Day
9h 22m
Waning Gibbous, 92% of the Moon is Illuminated
Dec 1
Waning Gibbous
Dec 6
Last Quarter
Dec 13
New
Dec 20
First Quarter
Dec 28
Full

Hourly Weather History & Observations

Time (EST) Temp. Windchill Dew Point Humidity Pressure Visibility Wind Dir Wind Speed Gust Speed Precip Events Conditions
12:53 AM 33.1 °F - 21.9 °F 64% 30.53 in 10.0 mi Calm Calm - N/A   Overcast
1:53 AM 33.1 °F 30.0 °F 21.9 °F 64% 30.54 in 10.0 mi North 3.5 mph - N/A   Overcast
2:53 AM 33.1 °F 30.0 °F 21.9 °F 64% 30.54 in 10.0 mi North 3.5 mph - N/A   Overcast
3:53 AM 33.1 °F 30.0 °F 21.9 °F 64% 30.53 in 9.0 mi North 3.5 mph - 0.00 in Snow Light Snow
4:53 AM 32.0 °F 28.7 °F 26.1 °F 79% 30.54 in 10.0 mi NE 3.5 mph - 0.00 in   Overcast
5:53 AM 33.1 °F 30.0 °F 26.1 °F 75% 30.54 in 10.0 mi NE 3.5 mph - N/A   Overcast
6:53 AM 33.1 °F 27.7 °F 28.0 °F 82% 30.57 in 1.5 mi NE 5.8 mph - 0.00 in Snow Light Snow
7:53 AM 33.1 °F 30.0 °F 28.9 °F 85% 30.60 in 1.5 mi North 3.5 mph - 0.00 in Snow Light Snow
8:53 AM 33.1 °F 30.0 °F 30.0 °F 89% 30.60 in 2.5 mi NNE 3.5 mph - 0.01 in Snow Light Snow
9:53 AM 35.1 °F 29.3 °F 32.0 °F 89% 30.60 in 5.0 mi NE 6.9 mph - 0.00 in   Overcast
10:33 AM 35.6 °F 31.7 °F 33.8 °F 93% 30.59 in 10.0 mi NE 4.6 mph - N/A   Overcast
10:46 AM 35.6 °F 29.9 °F 33.8 °F 93% 30.58 in 10.0 mi NE 6.9 mph - N/A   Overcast
10:53 AM 36.0 °F 29.6 °F 33.1 °F 89% 30.58 in 10.0 mi NE 8.1 mph - N/A   Overcast
11:53 AM 37.0 °F 31.6 °F 34.0 °F 89% 30.55 in 10.0 mi NNE 6.9 mph - 0.00 in   Overcast
12:00 PM 37.4 °F 32.8 °F 33.8 °F 87% 30.54 in 10.0 mi NE 5.8 mph - 0.00 in   Overcast
12:53 PM 36.0 °F 31.1 °F 34.0 °F 93% 30.54 in 10.0 mi NNE 5.8 mph - 0.00 in   Overcast
1:53 PM 37.0 °F 34.5 °F 35.1 °F 93% 30.53 in 6.0 mi NNE 3.5 mph - N/A   Overcast
2:53 PM 37.9 °F 32.7 °F 36.0 °F 93% 30.52 in 8.0 mi NE 6.9 mph - N/A   Overcast
3:53 PM 37.9 °F 33.5 °F 36.0 °F 93% 30.53 in 7.0 mi NNE 5.8 mph - N/A   Overcast
4:53 PM 37.9 °F 34.4 °F 36.0 °F 93% 30.53 in 9.0 mi NNE 4.6 mph - N/A   Overcast
5:53 PM 37.4 °F 33.8 °F 35.6 °F 93% 30.55 in 4.0 mi North 4.6 mph - N/A   Overcast
6:28 PM 37.4 °F 34.9 °F 35.6 °F 93% 30.54 in 5.0 mi NNE 3.5 mph - N/A   Overcast
6:53 PM 37.0 °F 33.3 °F 35.1 °F 93% 30.54 in 5.0 mi NNE 4.6 mph - N/A   Overcast
7:43 PM 37.4 °F - 35.6 °F 93% 30.52 in 4.0 mi Calm Calm - N/A   Overcast
7:53 PM 37.0 °F - 35.1 °F 93% 30.52 in 4.0 mi Calm Calm - N/A   Overcast
8:31 PM 37.4 °F 33.8 °F 35.6 °F 93% 30.51 in 5.0 mi North 4.6 mph - N/A   Overcast
8:53 PM 37.0 °F 34.5 °F 35.1 °F 93% 30.51 in 5.0 mi NNE 3.5 mph - N/A   Overcast
9:41 PM 37.4 °F 34.9 °F 35.6 °F 93% 30.50 in 5.0 mi North 3.5 mph - N/A   Overcast
9:53 PM 37.9 °F - 36.0 °F 93% 30.50 in 5.0 mi Calm Calm - N/A   Overcast
10:53 PM 39.0 °F - 37.0 °F 93% 30.49 in 6.0 mi Calm Calm - N/A   Overcast
11:53 PM 37.9 °F 35.5 °F 36.0 °F 93% 30.47 in 4.0 mi North 3.5 mph - N/A   Mostly Cloudy